Pierceville, KS

10:39 AM CST on February 13, 2016 (GMT -0600)
Garden City Regional

Weather History for KGCK - October, 2012

Change the Weather History Date:

Tuesday, October 9, 2012

  Actual Average Record
Temperature  
Mean Temperature 48 °F 58 °F  
Max Temperature 61 °F 72 °F 91 °F (1965)
Min Temperature 34 °F 44 °F 23 °F (2000)
Degree Days  
Heating Degree Days 17 8  
Month to date heating degree days 130 61  
Since 1 July heating degree days 176 133  
Cooling Degree Days 0 1  
Month to date cooling degree days 1 13  
Year to date cooling degree days 1643 1291  
Moisture  
Dew Point 36 °F    
Average Humidity 68    
Maximum Humidity 92    
Minimum Humidity 44    
Precipitation  
Precipitation 0.00 in 0.05 in 1.35 in (1961)
Month to date precipitation 0.07 0.45  
Year to date precipitation 11.79 17.57  
Sea Level Pressure  
Sea Level Pressure 29.95 in    
Wind  
Wind Speed 14 mph (NNE)    
Max Wind Speed 35 mph    
Max Gust Speed 40 mph    
Visibility 10 miles    
Events      
T = Trace of Precipitation, MM = Missing Value Source: NWS Daily Summary

Daily Weather History Graph

Daily Weather History Graph

Search for Another Location

Airport or City:

Trip Planner

Search our weather history database for the weather conditions in past years. The results will help you decide how hot, cold, wet, or windy it might be!

Date:

Astronomy

Oct. 09, 2012 Rise Set
Actual Time 7:46 AM CDT 7:13 PM CDT
Civil Twilight 7:19 AM CDT 7:39 PM CDT
Nautical Twilight 6:49 AM CDT 8:09 PM CDT
Astronomical Twilight 6:18 AM CDT 8:40 PM CDT
Moon 1:30 AM CDT (10/9) 3:36 PM CDT (10/9)
Length of Visible Light 12h 19m
Length of Day
11h 26m
Last Quarter, 36% of the Moon is Illuminated
Oct 9
Last Quarter
Oct 15
New
Oct 21
First Quarter
Oct 29
Full
Nov 6
Last Quarter

Hourly Weather History & Observations

Time (CDT) Temp. Windchill Dew Point Humidity Pressure Visibility Wind Dir Wind Speed Gust Speed Precip Events Conditions
12:54 AM 45.0 °F 38.9 °F 37.0 °F 74% 29.81 in 10.0 mi SSE 12.7 mph - N/A   Clear
1:54 AM 44.1 °F 38.6 °F 36.0 °F 73% 29.80 in 10.0 mi SSE 10.4 mph - N/A   Clear
2:54 AM 43.0 °F 38.8 °F 36.0 °F 76% 29.79 in 10.0 mi SSE 6.9 mph - N/A   Clear
3:54 AM 42.1 °F 37.7 °F 36.0 °F 79% 29.76 in 10.0 mi SSE 6.9 mph - N/A   Clear
4:54 AM 39.0 °F 33.4 °F 35.1 °F 86% 29.75 in 10.0 mi South 8.1 mph - N/A   Clear
5:54 AM 37.0 °F 31.6 °F 34.0 °F 89% 29.76 in 10.0 mi SSW 6.9 mph - N/A   Clear
6:54 AM 35.1 °F 29.3 °F 33.1 °F 92% 29.78 in 10.0 mi SW 6.9 mph - N/A   Clear
7:54 AM 36.0 °F 29.6 °F 33.1 °F 89% 29.81 in 10.0 mi WNW 8.1 mph - N/A   Clear
8:54 AM 42.1 °F 34.2 °F 34.0 °F 73% 29.83 in 10.0 mi NNW 16.1 mph 23.0 mph N/A   Clear
9:54 AM 48.0 °F - 36.0 °F 63% 29.87 in 10.0 mi North 20.7 mph - N/A   Clear
10:54 AM 53.1 °F - 37.9 °F 57% 29.92 in 10.0 mi North 25.3 mph 31.1 mph N/A   Clear
11:54 AM 55.9 °F - 39.9 °F 55% 29.95 in 10.0 mi North 25.3 mph 32.2 mph N/A   Clear
12:54 PM 59.0 °F - 39.9 °F 49% 29.96 in 10.0 mi NNE 26.5 mph 36.8 mph N/A   Clear
1:54 PM 60.1 °F - 39.9 °F 47% 29.98 in 10.0 mi NNE 28.8 mph 39.1 mph N/A   Clear
2:54 PM 60.1 °F - 39.9 °F 47% 29.98 in 10.0 mi NNE 26.5 mph 34.5 mph N/A   Clear
3:54 PM 60.1 °F - 39.0 °F 46% 30.00 in 10.0 mi NNE 19.6 mph 33.4 mph N/A   Clear
4:54 PM 59.0 °F - 37.9 °F 46% 30.04 in 10.0 mi NE 18.4 mph - N/A   Clear
5:54 PM 57.9 °F - 37.0 °F 46% 30.06 in 10.0 mi NNE 16.1 mph 24.2 mph N/A   Clear
6:54 PM 55.0 °F - 36.0 °F 49% 30.08 in 10.0 mi NE 12.7 mph - N/A   Clear
7:54 PM 50.0 °F - 36.0 °F 59% 30.12 in 10.0 mi NE 6.9 mph - N/A   Clear
8:54 PM 44.1 °F 39.0 °F 35.1 °F 71% 30.17 in 10.0 mi North 9.2 mph - N/A   Clear
9:54 PM 42.1 °F 37.7 °F 34.0 °F 73% 30.19 in 10.0 mi North 6.9 mph - N/A   Clear
10:54 PM 39.9 °F 34.5 °F 33.1 °F 77% 30.22 in 10.0 mi North 8.1 mph - N/A   Clear
11:54 PM 37.9 °F 32.1 °F 32.0 °F 79% 30.22 in 10.0 mi NNE 8.1 mph - N/A   Clear